Location: Unspecified
(0.0000°N, 0.0000°E)
Time: 02:36:24
(UTC+01:00)

Cosmos 1626 Rocket - Visible Passes

Search period start: 25 November 2014 00:00
Search period end: 05 December 2014 00:00
Orbit: 604 x 633 km, 82.5° (Epoch: 23 November)

Date Brightness Start Highest point End Pass type
(mag) Time Alt. Az. Time Alt. Az. Time Alt. Az.
26 Nov 3.6 19:16:22 10° S 19:20:51 81° E 19:25:17 10° N visible
27 Nov 4.9 19:33:46 10° SSW 19:38:00 42° W 19:42:12 10° NNW visible
28 Nov 7.1 06:08:36 10° E 06:08:56 10° E 06:09:15 10° E visible
28 Nov 6.4 19:51:59 10° SW 19:55:09 19° W 19:58:19 10° NW visible
02 Dec 6.8 05:38:55 10° ENE 05:39:58 11° E 05:41:02 10° E visible
02 Dec 6.5 19:23:10 10° SW 19:26:13 18° W 19:29:15 10° NW visible
03 Dec 5.9 05:53:36 10° NNE 05:57:07 25° E 06:00:39 10° SE visible
04 Dec 4.2 06:10:02 10° N 06:14:15 58° E 06:18:31 10° SSE visible
